Location: Iwkowa
(49.8210°N, 20.5761°E)
Time: 12:02:36
(UTC+01:00)

ISS - Pass Details

Date: 01 February 2019
Orbit: 403 x 411 km, 51.6° (Epoch: 22 February)

Event Time Altitude Azimuth Distance (km) Brightness Sun altitude
Rises 17:19:02 0° 268° (W) 2,332 1.8 -7.9°
Reaches altitude 10° 17:21:08 10° 272° (W) 1,473 0.4 -8.2°
Maximum altitude 17:24:24 63° 354° (N) 462 -3.6 -8.7°
Enters shadow 17:27:15 13° 76° (ENE) 1,297 -2.0 -9.2°
